TIME,DELAY(SENSOR),PRES,OXYGEN,RAWTEMP,T(OPTODE),TCPHASE,FLUOR,BETA(BETA700),BETA(BETA412),BETA(BETA440),CDOM,C(CSC),ED(ED412.20),ED(ED444.00),ED(ED489.60),ED(ED554.30),LU(LU412.10),LU(LU443.90),LU(LU489.70),LU(LU554.70),COMP,TILTX,TILTY,CHECK
1354244774,5805,882.5700073242188000,33.2061614990234400,558.0095214843750000,4.5475711822509770,56.5461883544921900,54,99,101,78,82,15552,0,0,0,0,2147120640,2147772708,2147569344,2147570048,1470,2,13,23465
1354248370,5810,949.2600097656250000,41.8074417114257800,565.5036010742188000,4.3152050971984860,55.3015403747558600,55,98,101,78,81,15547,0,0,0,0,2147120768,2147779794,2147566491,2147572754,3593,3,13,59237
1354251970,5809,961.2899780273438000,42.1180000305175800,566.0980224609375000,4.2967548370361330,55.2625389099121100,54,101,100,78,83,15546,0,0,0,0,2147122834,2147775835,2147566400,2147571931,3180,3,13,31059
1354255570,5812,990.8599853515625000,43.0986709594726560,568.5297241210938000,4.2212429046630860,55.1416206359863300,56,117,100,78,82,15543,0,0,0,0,2147124269,2147774793,2147570779,2147569856,3100,2,13,39262
1354259170,5807,993.4600219726562000,43.1174888610839840,568.9218139648438000,4.2090630531311035,55.1444282531738300,55,101,99,79,82,15542,0,0,0,0,2147123840,2147772909,2147570084,2147569033,129,3,13,39751
1354262770,5811,997.6699829101562000,42.9627304077148440,569.1016845703125000,4.2034702301025390,55.1663208007812500,54,99,101,77,83,15543,0,0,0,0,2147119067,2147775469,2147570715,2147570605,2927,2,13,46446
1354266370,5813,1000.6199951171875000,43.2461090087890600,569.3967285156250000,4.1943092346191410,55.1300582885742200,55,100,100,78,84,15542,0,0,0,0,2147122157,2147775890,2147572242,2147566957,3526,3,13,14403
1354269970,5810,1002.4699707031250000,43.2982292175293000,569.3922729492188000,4.1944432258605960,55.1210594177246100,55,99,101,78,83,15540,0,0,0,0,2147126070,2147773952,2147567881,2147570441,438,2,13,3948
1354273570,5809,997.0399780273438000,43.0590782165527340,569.9509277343750000,4.1770877838134770,55.1668510437011700,54,98,100,78,83,15543,0,0,0,0,2147120594,2147777737,2147572178,2147570834,227,2,13,5540
1354277170,5810,1001.1599731445312000,42.9901885986328100,569.4202880859375000,4.1935729980468750,55.1698799133300800,54,101,99,77,80,15540,0,0,0,0,2147123684,2147775140,2147574208,2147570861,3563,2,13,16150
1354280770,5808,1007.1699829101562000,42.6716003417968750,568.6865234375000000,4.2163701057434080,55.2039413452148440,55,99,99,77,82,15539,0,0,0,0,2147123419,2147775908,2147572278,2147567451,546,3,13,63364
1354284370,5809,997.2800292968750000,42.9613113403320300,569.9680175781250000,4.1765580177307130,55.1774406433105500,55,98,100,78,82,15539,0,0,0,0,2147125513,2147775707,2147572516,2147568621,797,3,13,43241
1354287970,5810,1004.2199707031250000,43.1481399536132800,570.3233032226562000,4.1655139923095700,55.1572303771972660,55,99,101,78,81,15541,0,0,0,0,2147124050,2147775862,2147572379,2147566518,139,3,13,58540
1354291570,5809,996.1500244140625000,42.4335708618164060,570.3696289062500000,4.1640739440917970,55.2575798034668000,55,100,101,77,81,15537,0,0,0,0,2147122962,2147779885,2147570450,2147569060,364,3,13,60384
1354295170,5808,1001.3499755859375000,42.4235992431640600,570.4614257812500000,4.1612219810485840,55.2604598999023440,55,98,100,78,82,15539,0,0,0,0,2147122450,2147777718,2147572178,2147567744,102,3,13,29411
1354298770,5808,1002.5599975585938000,42.7220611572265600,570.0509033203125000,4.1739788055419920,55.2162094116210940,55,99,103,78,83,15539,0,0,0,0,2147122688,2147773796,2147565686,2147568932,870,3,13,28447
1354302370,5810,998.2399902343750000,42.4703598022460940,570.4077758789062000,4.1628880500793460,55.2530708312988300,55,99,100,76,83,15537,0,0,0,0,2147121371,2147776758,2147568502,2147567515,3433,2,13,56007
1354305970,5809,1000.9799804687500000,42.7311706542968750,570.8590698242188000,4.1488609313964840,55.2250289916992200,54,99,99,77,83,15538,0,0,0,0,2147120036,2147775076,2147573394,2147571053,3297,3,13,47055
1354309570,5810,995.5300292968750000,42.6414299011230500,570.7573852539062000,4.1520228385925290,55.2370185852050800,55,98,100,79,84,15531,0,0,0,0,2147125897,2147773814,2147569490,2147568210,3566,2,13,29536
1354313170,5810,996.8499755859375000,42.4642906188964840,571.3488159179688000,4.1336398124694820,55.2645187377929700,54,100,101,78,82,15530,0,0,0,0,2147122998,2147777700,2147571574,2147568978,466,3,13,33730
1354316770,5811,1001.3699951171875000,42.9122505187988300,570.9157714843750000,4.1470990180969240,55.1973495483398440,54,99,100,78,83,15528,0,0,0,0,2147124425,2147777490,2147568484,2147568813,561,3,13,39239
1354320370,5809,1002.2100219726562000,42.5087318420410160,570.5817871093750000,4.1574797630310060,55.2533988952636700,55,98,100,78,81,15524,0,0,0,0,2147122130,2147772992,2147571227,2147570377,3494,3,13,5848
1354323970,5812,1007.6300048828125000,42.1705093383789060,570.5737915039062000,4.1577281951904300,55.2974281311035160,55,99,100,78,82,15532,0,0,0,0,2147123126,2147771602,2147572534,2147565714,210,3,13,34700
1354327570,5812,1004.3699951171875000,42.6597518920898440,570.5238037109375000,4.1592831611633300,55.2290000915527340,54,99,102,78,83,15525,0,0,0,0,2147121398,2147774217,2147570294,2147568676,258,3,13,31863
1354331170,5811,1011.4600219726562000,42.9301986694335940,570.5969848632812000,4.1570072174072270,55.1893196105957000,54,98,101,78,82,15528,0,0,0,0,2147123638,2147775488,2147574976,2147565677,3344,3,13,41890
1354334770,5811,1008.9500122070312000,42.8992500305175800,570.3698120117188000,4.1640682220458980,55.1911697387695300,53,99,101,77,82,15527,0,0,0,0,2147121472,2147775725,2147576192,2147568841,37,2,13,33277
1354338370,5810,1010.8800048828125000,42.5689811706543000,569.5501708984375000,4.1895389556884770,55.2334899902343750,55,98,100,78,82,15524,0,0,0,0,2147122633,2147773184,2147571264,2147566665,245,2,13,61833
1354341970,5809,1014.3499755859375000,42.5705604553222660,569.4893188476562000,4.1914291381835940,55.2309799194335940,54,99,100,77,82,15526,0,0,0,0,2147124379,2147774253,2147576338,2147570916,3504,3,13,8577
1354345570,5809,1013.3699951171875000,42.2051887512207000,569.3234252929688000,4.1965851783752440,55.2847099304199200,55,98,101,78,83,15526,0,0,0,0,2147122834,2147771757,2147570112,2147567780,3285,3,13,65171
1354349170,5812,1008.9400024414062000,42.1857490539550800,569.7990112304688000,4.1818070411682130,55.2908287048339840,54,98,100,78,82,15525,0,0,0,0,2147122733,2147772982,2147572790,2147569874,446,3,13,38226
1354352770,5813,1010.5599975585938000,42.6300811767578100,569.8745117187500000,4.1794610023498535,55.2247009277343750,54,99,101,78,82,15521,0,0,0,0,2147120713,2147774134,2147569380,2147571026,3551,3,13,31927
1354356370,5810,1009.4500122070312000,42.4939002990722660,571.0015258789062000,4.1444339752197270,55.2556381225585940,55,101,101,78,82,15527,0,0,0,0,2147124406,2147772598,2147571300,2147569481,2900,3,13,21751
1354359970,5806,1004.5999755859375000,42.8555793762207000,571.5695800781250000,4.1267762184143070,55.2088584899902340,55,99,101,80,81,15522,0,0,0,0,2147125449,2147775762,2147568868,2147568356,323,3,13,41356
1354363570,5807,1004.5399780273438000,43.1271209716796900,572.0294799804688000,4.1124739646911620,55.1754493713378900,54,101,100,77,83,15524,0,0,0,0,2147122669,2147772681,2147571574,2147568786,1669,3,13,25485
1354367170,5810,1003.3599853515625000,42.9008407592773440,571.0494995117188000,4.1429419517517090,55.1997718811035160,55,100,100,78,82,15525,0,0,0,0,2147122605,2147777746,2147568502,2147570112,827,3,13,2246
1354370770,5808,1008.6400146484375000,43.2900009155273440,571.2686767578125000,4.1361269950866700,55.1492195129394500,55,98,100,79,83,15522,0,0,0,0,2147125376,2147770578,2147571721,2147570477,199,3,13,33824
1354374370,5810,1007.1900024414062000,43.3264503479003900,571.1890869140625000,4.1386008262634280,55.1388511657714840,55,99,100,78,82,15523,0,0,0,0,2147123492,2147770962,2147572800,2147570422,255,3,13,31222
1354377970,5812,1013.6500244140625000,43.0979881286621100,571.1232299804688000,4.1406497955322270,55.1715888977050800,55,101,101,78,81,15522,0,0,0,0,2147125129,2147776649,2147569197,2147573778,100,3,13,28968
1354381570,5809,1011.6199951171875000,42.3784904479980500,570.3734130859375000,4.1639580726623535,55.2692184448242200,56,97,100,77,82,15522,0,0,0,0,2147119616,2147773988,2147572809,2147566491,205,3,13,26934
1354385170,5810,1012.3499755859375000,42.1990013122558600,570.5629882812500000,4.1580638885498050,55.2943992614746100,55,97,101,77,82,15516,0,0,0,0,2147124571,2147774482,2147568676,2147570395,182,2,13,36224
1354388770,5809,1011.8400268554688000,42.6610298156738300,569.8817749023438000,4.1792340278625490,55.2187995910644500,55,99,101,78,82,15520,0,0,0,0,2147123209,2147770880,2147564498,2147570514,3522,3,13,6655
1354389955,5807,1011.9299926757812000,42.6464309692382800,570.2650756835938000,4.1673240661621090,55.2293014526367200,55,97,101,78,84,15517,0,0,0,0,2147124059,2147770761,2147570029,2147569097,483,3,13,61510
